When you browse on this site, cookies collect data to enhance your experience and personalize the content and advertising you see.
Visit our Privacy Policy to learn more. By continuing to use the site, you agree to this use of cookies and data.
  • In France
  • List of Countries
  • For 7 days
  • Water Temperature
  • Satellite Maps
  • Weather Map
  • Weather Widgets
  • user-avatar
    Login

    Hourly Weather Slobodka

    Today, 23 February, Saturday

    Time Temperature Precipitation Wind Pressure Humidity
    00:00 -15°C° 0 mm 4 mps 753 mmHg 90%
    01:00 -15°C° 0 mm 4 mps 754 mmHg 90%
    02:00 -15°C° 0 mm 4 mps 754 mmHg 90%
    03:00 -16°C° 0 mm 4 mps 755 mmHg 90%
    04:00 -16°C° 0 mm 4 mps 755 mmHg 91%
    05:00 -17°C° 0 mm 4 mps 756 mmHg 91%
    06:00 -17°C° 0 mm 4 mps 756 mmHg 92%
    07:00 -17°C° 0 mm 4 mps 757 mmHg 93%
    08:00 -16°C° 0 mm 3 mps 758 mmHg 93%
    09:00 -16°C° 0 mm 4 mps 758 mmHg 92%
    10:00 -15°C° 0 mm 4 mps 758 mmHg 91%
    11:00 -12°C° 0 mm 4 mps 759 mmHg 90%
    12:00 -12°C° 0 mm 4 mps 759 mmHg 89%
    13:00 -11°C° 0 mm 4 mps 758 mmHg 88%
    14:00 -10°C° 0 mm 3 mps 758 mmHg 88%
    15:00 -12°C° 0 mm 3 mps 758 mmHg 89%
    16:00 -12°C° 0 mm 2 mps 758 mmHg 90%
    17:00 -13°C° 0 mm 2 mps 758 mmHg 91%
    18:00 -13°C° 0 mm 2 mps 758 mmHg 91%
    19:00 -13°C° 0 mm 2 mps 758 mmHg 91%
    20:00 -13°C° 0 mm 2 mps 758 mmHg 91%
    21:00 -13°C° 0 mm 2 mps 758 mmHg 90%
    22:00 -13°C° 0 mm 2 mps 757 mmHg 90%
    23:00 -13°C° 0 mm 2 mps 757 mmHg 90%

    Tomorrow, 24 February, Sunday

    Time Temperature Precipitation Wind Pressure Humidity
    00:00 -13°C° 0 mm 3 mps 757 mmHg 91%
    01:00 -13°C° 0 mm 3 mps 757 mmHg 93%
    02:00 -12°C° 0 mm 3 mps 756 mmHg 94%
    03:00 -11°C° 0.1 mm 4 mps 756 mmHg 94%
    04:00 -11°C° 0.1 mm 4 mps 755 mmHg 94%
    05:00 -10°C° 0.1 mm 4 mps 755 mmHg 95%
    06:00 -10°C° 0.1 mm 4 mps 755 mmHg 94%
    07:00 -9°C° 0.1 mm 4 mps 754 mmHg 94%
    08:00 -10°C° 0.1 mm 5 mps 754 mmHg 94%
    09:00 -8°C° 0.1 mm 4 mps 754 mmHg 94%
    10:00 -7°C° 0.1 mm 4 mps 754 mmHg 93%
    11:00 -7°C° 0.1 mm 4 mps 754 mmHg 93%
    12:00 -5°C° 0 mm 4 mps 754 mmHg 93%
    13:00 -4°C° 0 mm 4 mps 754 mmHg 94%
    14:00 -4°C° 0 mm 4 mps 753 mmHg 94%
    15:00 -4°C° 0 mm 4 mps 753 mmHg 94%
    16:00 -3°C° 0 mm 4 mps 753 mmHg 95%
    17:00 -2°C° 0 mm 3 mps 753 mmHg 95%
    18:00 -2°C° 0 mm 3 mps 753 mmHg 95%
    19:00 -2°C° 0 mm 3 mps 753 mmHg 96%
    20:00 -2°C° 0 mm 3 mps 753 mmHg 96%
    21:00 -2°C° 0 mm 4 mps 753 mmHg 96%
    22:00 -2°C° 0 mm 4 mps 753 mmHg 96%
    23:00 -2°C° 0 mm 4 mps 752 mmHg 95%

    Day after tomorrow, 25 February, Monday

    Time Temperature Precipitation Wind Pressure Humidity
    00:00 -2°C° 0 mm 4 mps 752 mmHg 95%
    01:00 -2°C° 0 mm 5 mps 752 mmHg 94%
    02:00 -2°C° 0 mm 5 mps 751 mmHg 94%
    03:00 -2°C° 0.1 mm 5 mps 750 mmHg 93%
    04:00 -3°C° 0.1 mm 6 mps 750 mmHg 93%
    05:00 -3°C° 0.1 mm 6 mps 749 mmHg 92%
    06:00 -3°C° 0.1 mm 6 mps 749 mmHg 92%
    07:00 -3°C° 0.1 mm 6 mps 748 mmHg 92%
    08:00 -4°C° 0.1 mm 6 mps 748 mmHg 92%
    09:00 -3°C° 0.1 mm 6 mps 747 mmHg 92%
    10:00 -3°C° 0.1 mm 6 mps 747 mmHg 93%
    11:00 -3°C° 0.1 mm 6 mps 746 mmHg 94%
    12:00 -2°C° 0.1 mm 6 mps 746 mmHg 94%
    13:00 -2°C° 0.1 mm 6 mps 745 mmHg 95%
    14:00 -2°C° 0.1 mm 6 mps 745 mmHg 95%
    15:00 -2°C° 0.1 mm 6 mps 744 mmHg 92%
    16:00 -3°C° 0.1 mm 6 mps 744 mmHg 90%
    17:00 -3°C° 0.1 mm 6 mps 743 mmHg 87%
    18:00 -3°C° 0.1 mm 6 mps 743 mmHg 89%
    19:00 -3°C° 0.1 mm 6 mps 743 mmHg 90%
    20:00 -3°C° 0.1 mm 6 mps 742 mmHg 92%
    21:00 -3°C° 0.1 mm 6 mps 742 mmHg 92%
    22:00 -2°C° 0.1 mm 5 mps 742 mmHg 91%
    23:00 -2°C° 0.1 mm 5 mps 741 mmHg 90%

    26 February, Tuesday

    Time Temperature Precipitation Wind Pressure Humidity
    00:00 -2°C° 0 mm 5 mps 741 mmHg 90%
    01:00 -2°C° 0 mm 5 mps 741 mmHg 90%
    02:00 -2°C° 0 mm 5 mps 741 mmHg 90%
    03:00 -4°C° 0 mm 5 mps 741 mmHg 90%
    04:00 -4°C° 0 mm 6 mps 740 mmHg 90%
    05:00 -4°C° 0 mm 6 mps 740 mmHg 91%
    06:00 -2°C° 0 mm 5 mps 740 mmHg 91%
    07:00 -2°C° 0 mm 5 mps 740 mmHg 91%
    08:00 -2°C° 0 mm 5 mps 739 mmHg 90%
    09:00 -2°C° 0.1 mm 5 mps 739 mmHg 90%
    10:00 -2°C° 0.1 mm 5 mps 738 mmHg 89%
    11:00 -2°C° 0.1 mm 5 mps 738 mmHg 89%
    12:00 -2°C° 0.3 mm 5 mps 737 mmHg 91%
    13:00 -2°C° 0.3 mm 5 mps 737 mmHg 93%
    14:00 -2°C° 0.3 mm 5 mps 736 mmHg 94%
    15:00 -2°C° 0.1 mm 5 mps 736 mmHg 93%
    16:00 -2°C° 0.1 mm 4 mps 736 mmHg 92%
    17:00 -2°C° 0.1 mm 4 mps 735 mmHg 91%
    18:00 -2°C° 0 mm 4 mps 736 mmHg 91%
    19:00 -4°C° 0 mm 5 mps 736 mmHg 91%
    20:00 -4°C° 0 mm 5 mps 736 mmHg 91%
    21:00 -5°C° 0 mm 5 mps 737 mmHg 91%
    22:00 -5°C° 0 mm 5 mps 737 mmHg 90%
    23:00 -6°C° 0 mm 5 mps 737 mmHg 90%

    27 February, Wednesday

    Time Temperature Precipitation Wind Pressure Humidity
    00:00 -5°C° 0 mm 5 mps 738 mmHg 90%
    01:00 -5°C° 0 mm 6 mps 738 mmHg 90%
    02:00 -5°C° 0 mm 6 mps 738 mmHg 89%
    03:00 -5°C° 0 mm 6 mps 739 mmHg 89%
    04:00 -5°C° 0 mm 6 mps 739 mmHg 90%
    05:00 -5°C° 0 mm 6 mps 739 mmHg 90%
    06:00 -5°C° 0 mm 6 mps 739 mmHg 90%
    07:00 -5°C° 0 mm 6 mps 740 mmHg 90%
    08:00 -5°C° 0 mm 6 mps 740 mmHg 90%
    09:00 -5°C° 0 mm 6 mps 740 mmHg 89%
    10:00 -5°C° 0 mm 6 mps 740 mmHg 88%
    11:00 -5°C° 0 mm 6 mps 740 mmHg 88%
    12:00 -5°C° 0 mm 5 mps 740 mmHg 87%
    13:00 -5°C° 0 mm 5 mps 739 mmHg 86%
    14:00 -5°C° 0 mm 5 mps 739 mmHg 85%
    15:00 -4°C° 0 mm 4 mps 738 mmHg 86%
    16:00 -5°C° 0 mm 4 mps 738 mmHg 87%
    17:00 -5°C° 0 mm 4 mps 737 mmHg 87%
    18:00 -5°C° 0.1 mm 4 mps 737 mmHg 90%
    19:00 -5°C° 0.1 mm 4 mps 736 mmHg 92%
    20:00 -5°C° 0.1 mm 4 mps 736 mmHg 94%
    21:00 -5°C° 0.2 mm 4 mps 735 mmHg 94%
    22:00 -4°C° 0.2 mm 4 mps 734 mmHg 94%
    23:00 -4°C° 0.2 mm 4 mps 734 mmHg 94%

    28 February, Thursday

    Time Temperature Precipitation Wind Pressure Humidity
    00:00 -3°C° 0 mm 4 mps 733 mmHg 94%
    01:00 -3°C° 0 mm 4 mps 732 mmHg 95%
    02:00 -2°C° 0 mm 3 mps 731 mmHg 95%
    03:00 -3°C° 0.1 mm 4 mps 731 mmHg 95%
    04:00 -2°C° 0.1 mm 4 mps 730 mmHg 95%
    05:00 -2°C° 0.1 mm 4 mps 729 mmHg 95%
    06:00 -2°C° 0.2 mm 4 mps 729 mmHg 95%
    07:00 -2°C° 0.2 mm 4 mps 728 mmHg 94%
    08:00 -2°C° 0.2 mm 5 mps 728 mmHg 94%
    09:00 -2°C° 0.2 mm 5 mps 728 mmHg 95%
    10:00 -3°C° 0.2 mm 6 mps 727 mmHg 96%
    11:00 -2°C° 0.2 mm 6 mps 727 mmHg 97%
    12:00 -2°C° 0.2 mm 6 mps 726 mmHg 97%
    13:00 -2°C° 0.2 mm 6 mps 726 mmHg 97%
    14:00 -2°C° 0.2 mm 6 mps 726 mmHg 97%
    15:00 -2°C° 0.2 mm 6 mps 726 mmHg 95%
    16:00 -1°C° 0.2 mm 5 mps 725 mmHg 94%
    17:00 -1°C° 0.2 mm 5 mps 725 mmHg 92%
    18:00 -1°C° 0.2 mm 5 mps 725 mmHg 92%
    19:00 -1°C° 0.2 mm 5 mps 725 mmHg 92%
    20:00 -1°C° 0.2 mm 5 mps 725 mmHg 92%
    21:00 -1°C° 0.1 mm 5 mps 725 mmHg 92%
    22:00 -2°C° 0.1 mm 6 mps 725 mmHg 92%
    23:00 -2°C° 0.1 mm 6 mps 725 mmHg 92%
    Show more